Time,TemperatureF,DewpointF,PressureIn,WindDirection,WindDirectionDegrees,WindSpeedMPH,WindSpeedGustMPH,Humidity,HourlyPrecipIn,Conditions,Clouds,dailyrainin,SoftwareType,DateUTC
2013-02-15 00:01:00,23.0,22.0,-100.00,WSW,237,7.0,9.0,97,0.00,,,-99.99,,2013-02-15 07:01:00,
2013-02-15 00:11:00,23.0,22.0,-100.00,WSW,241,7.0,8.0,97,0.00,,,-99.99,,2013-02-15 07:11:00,
2013-02-15 00:21:00,23.0,22.0,-100.00,WSW,258,4.0,7.0,95,0.00,,,-99.99,,2013-02-15 07:21:00,
2013-02-15 00:31:00,24.0,22.0,-100.00,West,272,7.0,11.0,91,0.00,,,-99.99,,2013-02-15 07:31:00,
2013-02-15 00:41:00,24.0,21.0,-100.00,West,275,9.0,11.0,88,0.00,,,-99.99,,2013-02-15 07:41:00,
2013-02-15 00:52:00,24.0,21.0,-100.00,West,277,9.0,12.0,87,0.00,,,-99.99,,2013-02-15 07:52:00,
2013-02-15 01:01:00,24.0,21.0,-100.00,West,272,10.0,12.0,85,0.00,,,-99.99,,2013-02-15 08:01:00,
2013-02-15 01:11:00,23.0,20.0,-100.00,WNW,282,9.0,11.0,88,0.00,,,-99.99,,2013-02-15 08:11:00,
2013-02-15 01:21:00,23.0,20.0,-100.00,WNW,285,7.0,8.0,86,0.00,,,-99.99,,2013-02-15 08:21:00,
2013-02-15 01:31:00,23.0,20.0,-100.00,WNW,296,7.0,8.0,87,0.00,,,-99.99,,2013-02-15 08:31:00,
2013-02-15 01:41:00,23.0,19.0,-100.00,NW,305,7.0,9.0,84,0.00,,,-99.99,,2013-02-15 08:41:00,
2013-02-15 01:52:00,22.0,18.0,-100.00,WNW,301,7.0,9.0,87,0.00,,,-99.99,,2013-02-15 08:52:00,
2013-02-15 02:01:00,22.0,18.0,-100.00,WNW,292,8.0,9.0,86,0.00,,,-99.99,,2013-02-15 09:01:00,
2013-02-15 02:11:00,22.0,19.0,-100.00,WNW,294,8.0,9.0,87,0.00,,,-99.99,,2013-02-15 09:11:00,
2013-02-15 02:21:00,24.0,20.0,-100.00,WNW,284,9.0,10.0,85,0.00,,,-99.99,,2013-02-15 09:21:00,
2013-02-15 02:31:00,24.0,20.0,-100.00,WNW,284,9.0,11.0,84,0.00,,,-99.99,,2013-02-15 09:31:00,
2013-02-15 02:41:00,24.0,20.0,-100.00,WNW,288,9.0,10.0,85,0.00,,,-99.99,,2013-02-15 09:41:00,
2013-02-15 02:51:00,25.0,20.0,-100.00,WNW,294,9.0,11.0,83,0.00,,,-99.99,,2013-02-15 09:51:00,
2013-02-15 03:01:00,25.0,20.0,-100.00,WNW,291,9.0,11.0,83,0.00,,,-99.99,,2013-02-15 10:01:00,
2013-02-15 03:11:00,25.0,21.0,-100.00,WNW,295,9.0,15.0,82,0.00,,,-99.99,,2013-02-15 10:11:00,
2013-02-15 03:21:00,25.0,21.0,-100.00,WNW,295,11.0,15.0,83,0.00,,,-99.99,,2013-02-15 10:21:00,
2013-02-15 03:31:00,25.0,22.0,-100.00,WNW,302,11.0,20.0,88,0.03,,,-99.99,,2013-02-15 10:31:00,
2013-02-15 03:41:00,24.0,22.0,-100.00,NW,313,12.0,16.0,96,0.04,,,-99.99,,2013-02-15 10:41:00,
2013-02-15 03:51:00,24.0,23.0,-100.00,NW,306,13.0,17.0,98,0.04,,,-99.99,,2013-02-15 10:51:00,
2013-02-15 04:01:00,23.0,23.0,-100.00,WNW,302,14.0,18.0,98,0.04,,,-99.99,,2013-02-15 11:01:00,
2013-02-15 04:11:00,23.0,23.0,-100.00,WNW,296,12.0,16.0,98,0.00,,,-99.99,,2013-02-15 11:11:00,
2013-02-15 04:22:00,23.0,23.0,-100.00,WNW,298,11.0,13.0,99,0.00,,,-99.99,,2013-02-15 11:22:00,
2013-02-15 04:31:00,23.0,23.0,-100.00,WNW,287,8.0,10.0,100,0.00,,,-99.99,,2013-02-15 11:31:00,
2013-02-15 04:42:00,23.0,23.0,-100.00,WNW,289,7.0,9.0,100,0.01,,,-99.99,,2013-02-15 11:42:00,
2013-02-15 04:52:00,23.0,23.0,-100.00,WNW,299,9.0,11.0,100,0.01,,,-99.99,,2013-02-15 11:52:00,
2013-02-15 05:01:00,23.0,23.0,-100.00,NW,305,11.0,13.0,100,0.04,,,-99.99,,2013-02-15 12:01:00,
2013-02-15 05:11:00,24.0,24.0,-100.00,NW,312,13.0,18.0,100,0.07,,,-99.99,,2013-02-15 12:11:00,
2013-02-15 05:21:00,24.0,23.0,-100.00,NW,311,17.0,23.0,99,0.04,,,-99.99,,2013-02-15 12:21:00,
2013-02-15 05:31:00,23.0,23.0,-100.00,NW,306,21.0,26.0,99,0.07,,,-99.99,,2013-02-15 12:31:00,
2013-02-15 05:42:00,23.0,23.0,-100.00,WNW,298,20.0,23.0,100,0.04,,,-99.99,,2013-02-15 12:42:00,
2013-02-15 05:52:00,24.0,23.0,-100.00,WNW,299,21.0,25.0,100,0.01,,,-99.99,,2013-02-15 12:52:00,
2013-02-15 06:02:00,24.0,23.0,-100.00,WNW,295,21.0,25.0,100,0.10,,,-99.99,,2013-02-15 13:02:00,
2013-02-15 06:11:00,23.0,23.0,-100.00,WNW,291,20.0,26.0,100,0.00,,,-99.99,,2013-02-15 13:11:00,
2013-02-15 06:21:00,23.0,23.0,-100.00,WNW,292,21.0,26.0,99,0.00,,,-99.99,,2013-02-15 13:21:00,
2013-02-15 06:31:00,24.0,24.0,-100.00,WNW,285,17.0,22.0,100,0.01,,,-99.99,,2013-02-15 13:31:00,
2013-02-15 06:41:00,23.0,23.0,-100.00,WNW,284,17.0,20.0,100,0.00,,,-99.99,,2013-02-15 13:41:00,
2013-02-15 06:52:00,-999.0,-99.9,-100.00,West,275,17.0,21.0,-999,-99.99,,,-99.99,,2013-02-15 13:52:00,
2013-02-15 07:01:00,24.0,24.0,-100.00,West,271,17.0,20.0,100,0.04,,,-99.99,,2013-02-15 14:01:00,
2013-02-15 07:11:00,24.0,23.0,-100.00,West,271,17.0,21.0,99,0.01,,,-99.99,,2013-02-15 14:11:00,
2013-02-15 07:21:00,23.0,23.0,-100.00,West,272,19.0,22.0,99,0.06,,,-99.99,,2013-02-15 14:21:00,
2013-02-15 07:31:00,23.0,23.0,-100.00,West,274,17.0,21.0,100,0.00,,,-99.99,,2013-02-15 14:31:00,
2013-02-15 07:41:00,24.0,23.0,-100.00,West,274,16.0,20.0,99,0.00,,,-99.99,,2013-02-15 14:41:00,
2013-02-15 07:52:00,24.0,23.0,-100.00,West,272,17.0,21.0,97,0.01,,,-99.99,,2013-02-15 14:52:00,
2013-02-15 08:01:00,24.0,23.0,-100.00,West,272,17.0,21.0,97,0.00,,,-99.99,,2013-02-15 15:01:00,
2013-02-15 08:11:00,24.0,23.0,-100.00,West,278,16.0,20.0,97,0.03,,,-99.99,,2013-02-15 15:11:00,
2013-02-15 08:21:00,24.0,23.0,-100.00,West,274,16.0,20.0,97,0.01,,,-99.99,,2013-02-15 15:21:00,
2013-02-15 08:32:00,24.0,24.0,-100.00,West,272,16.0,20.0,96,0.00,,,-99.99,,2013-02-15 15:32:00,
2013-02-15 08:41:00,24.0,23.0,-100.00,West,265,14.0,17.0,95,0.00,,,-99.99,,2013-02-15 15:41:00,
2013-02-15 08:51:00,24.0,23.0,-100.00,West,265,12.0,15.0,95,0.00,,,-99.99,,2013-02-15 15:51:00,
2013-02-15 09:01:00,25.0,24.0,-100.00,West,264,16.0,21.0,95,0.03,,,-99.99,,2013-02-15 16:01:00,
2013-02-15 09:11:00,26.0,23.0,-100.00,West,274,22.0,28.0,91,0.00,,,-99.99,,2013-02-15 16:11:00,
2013-02-15 09:21:00,26.0,23.0,-100.00,WNW,282,22.0,29.0,91,0.00,,,-99.99,,2013-02-15 16:21:00,
2013-02-15 09:31:00,25.0,24.0,-100.00,West,274,22.0,26.0,93,0.00,,,-99.99,,2013-02-15 16:31:00,
2013-02-15 09:42:00,26.0,23.0,-100.00,West,271,20.0,24.0,90,0.00,,,-99.99,,2013-02-15 16:42:00,
2013-02-15 09:51:00,26.0,23.0,-100.00,West,270,17.0,21.0,88,0.00,,,-99.99,,2013-02-15 16:51:00,
2013-02-15 10:01:00,26.0,24.0,-100.00,West,263,17.0,21.0,91,0.00,,,-99.99,,2013-02-15 17:01:00,
2013-02-15 10:11:00,26.0,23.0,-100.00,West,265,16.0,20.0,86,0.00,,,-99.99,,2013-02-15 17:11:00,
2013-02-15 10:21:00,27.0,21.0,-100.00,West,267,15.0,19.0,80,0.00,,,-99.99,,2013-02-15 17:21:00,
2013-02-15 10:31:00,27.0,22.0,-100.00,West,265,14.0,20.0,81,0.00,,,-99.99,,2013-02-15 17:31:00,
2013-02-15 10:52:00,28.0,21.0,-100.00,West,261,12.0,16.0,75,0.00,,,-99.99,,2013-02-15 17:52:00,
2013-02-15 11:01:00,28.0,20.0,-100.00,WSW,258,12.0,16.0,73,0.00,,,-99.99,,2013-02-15 18:01:00,
2013-02-15 11:11:00,28.0,20.0,-100.00,WSW,257,11.0,13.0,74,0.00,,,-99.99,,2013-02-15 18:11:00,
2013-02-15 11:21:00,29.0,21.0,-100.00,West,270,9.0,12.0,72,0.00,,,-99.99,,2013-02-15 18:21:00,
2013-02-15 11:31:00,29.0,19.0,-100.00,West,270,9.0,12.0,65,0.00,,,-99.99,,2013-02-15 18:31:00,
2013-02-15 11:41:00,29.0,19.0,-100.00,West,268,9.0,13.0,66,0.00,,,-99.99,,2013-02-15 18:41:00,
2013-02-15 11:52:00,29.0,20.0,-100.00,West,274,8.0,11.0,68,0.00,,,-99.99,,2013-02-15 18:52:00,
2013-02-15 12:01:00,29.0,20.0,-100.00,WNW,288,9.0,11.0,69,0.00,,,-99.99,,2013-02-15 19:01:00,
2013-02-15 12:11:00,30.0,20.0,-100.00,WNW,289,7.0,10.0,67,0.00,,,-99.99,,2013-02-15 19:11:00,
2013-02-15 12:21:00,30.0,19.0,-100.00,WNW,288,8.0,11.0,65,0.00,,,-99.99,,2013-02-15 19:21:00,
2013-02-15 12:31:00,29.0,20.0,-100.00,WNW,301,9.0,12.0,67,0.00,,,-99.99,,2013-02-15 19:31:00,
2013-02-15 12:41:00,30.0,20.0,-100.00,NW,311,9.0,11.0,67,0.00,,,-99.99,,2013-02-15 19:41:00,
2013-02-15 12:51:00,30.0,19.0,-100.00,NW,309,7.0,10.0,62,0.00,,,-99.99,,2013-02-15 19:51:00,
2013-02-15 13:01:00,30.0,19.0,-100.00,West,281,6.0,7.0,64,0.00,,,-99.99,,2013-02-15 20:01:00,
2013-02-15 13:11:00,30.0,19.0,-100.00,West,274,5.0,6.0,63,0.00,,,-99.99,,2013-02-15 20:11:00,
2013-02-15 13:21:00,30.0,18.0,-100.00,WNW,288,5.0,6.0,59,0.00,,,-99.99,,2013-02-15 20:21:00,
2013-02-15 13:32:00,31.0,19.0,-100.00,WNW,296,6.0,7.0,61,0.00,,,-99.99,,2013-02-15 20:32:00,
2013-02-15 13:42:00,31.0,20.0,-100.00,WNW,296,3.0,6.0,63,0.00,,,-99.99,,2013-02-15 20:42:00,
2013-02-15 13:52:00,32.0,18.0,-100.00,WNW,302,2.0,4.0,56,0.00,,,-99.99,,2013-02-15 20:52:00,
2013-02-15 14:01:00,35.0,19.0,-100.00,WNW,289,1.0,2.0,51,0.00,,,-99.99,,2013-02-15 21:01:00,
2013-02-15 14:11:00,33.0,18.0,-100.00,WSW,244,1.0,3.0,54,0.00,,,-99.99,,2013-02-15 21:11:00,
2013-02-15 14:21:00,40.0,17.0,-100.00,SSE,147,1.0,2.0,39,0.00,,,-99.99,,2013-02-15 21:21:00,
2013-02-15 14:31:00,34.0,18.0,-100.00,SSE,160,1.0,2.0,51,0.00,,,-99.99,,2013-02-15 21:31:00,
2013-02-15 14:42:00,35.0,17.0,-100.00,South,181,1.0,2.0,48,0.00,,,-99.99,,2013-02-15 21:42:00,
2013-02-15 14:51:00,36.0,18.0,-100.00,SSW,209,0.0,2.0,47,0.00,,,-99.99,,2013-02-15 21:51:00,
2013-02-15 15:01:00,38.0,17.0,-100.00,East,93,1.0,2.0,41,0.00,,,-99.99,,2013-02-15 22:01:00,
2013-02-15 15:11:00,31.0,17.0,-100.00,East,96,2.0,2.0,55,0.00,,,-99.99,,2013-02-15 22:11:00,
2013-02-15 15:21:00,31.0,17.0,-100.00,ESE,121,3.0,4.0,57,0.00,,,-99.99,,2013-02-15 22:21:00,
2013-02-15 15:31:00,30.0,18.0,-100.00,SE,134,4.0,6.0,61,0.00,,,-99.99,,2013-02-15 22:31:00,
2013-02-15 15:41:00,30.0,18.0,-100.00,SSE,157,7.0,9.0,63,0.00,,,-99.99,,2013-02-15 22:41:00,
2013-02-15 15:51:00,29.0,20.0,-100.00,SSE,148,7.0,8.0,68,0.00,,,-99.99,,2013-02-15 22:51:00,
2013-02-15 16:01:00,29.0,20.0,-100.00,SE,144,7.0,9.0,69,0.00,,,-99.99,,2013-02-15 23:01:00,
2013-02-15 16:11:00,29.0,20.0,-100.00,SE,140,7.0,9.0,71,0.00,,,-99.99,,2013-02-15 23:11:00,
2013-02-15 16:21:00,29.0,20.0,-100.00,SE,131,6.0,7.0,69,0.00,,,-99.99,,2013-02-15 23:21:00,
2013-02-15 16:31:00,30.0,20.0,-100.00,ESE,121,5.0,6.0,66,0.00,,,-99.99,,2013-02-15 23:31:00,
2013-02-15 16:41:00,30.0,20.0,-100.00,SE,128,5.0,6.0,66,0.00,,,-99.99,,2013-02-15 23:41:00,
2013-02-15 16:52:00,29.0,19.0,-100.00,SE,138,5.0,6.0,64,0.00,,,-99.99,,2013-02-15 23:52:00,
2013-02-15 17:01:00,29.0,19.0,-100.00,SE,138,4.0,6.0,66,0.00,,,-99.99,,2013-02-16 00:01:00,
2013-02-15 17:11:00,29.0,18.0,-100.00,ESE,123,4.0,5.0,64,0.00,,,-99.99,,2013-02-16 00:11:00,
2013-02-15 17:21:00,28.0,17.0,-100.00,SE,127,4.0,6.0,64,0.00,,,-99.99,,2013-02-16 00:21:00,
2013-02-15 17:31:00,27.0,18.0,-100.00,SSE,155,6.0,7.0,68,0.00,,,-99.99,,2013-02-16 00:31:00,
2013-02-15 17:41:00,27.0,18.0,-100.00,SSE,165,6.0,7.0,70,0.00,,,-99.99,,2013-02-16 00:41:00,
2013-02-15 17:51:00,27.0,17.0,-100.00,SSE,164,6.0,7.0,67,0.00,,,-99.99,,2013-02-16 00:51:00,
2013-02-15 18:01:00,26.0,17.0,-100.00,SSE,151,6.0,7.0,69,0.00,,,-99.99,,2013-02-16 01:01:00,
2013-02-15 18:11:00,26.0,17.0,-100.00,SSE,154,5.0,6.0,69,0.00,,,-99.99,,2013-02-16 01:11:00,
2013-02-15 18:21:00,26.0,17.0,-100.00,SSE,167,5.0,6.0,68,0.00,,,-99.99,,2013-02-16 01:21:00,
2013-02-15 18:31:00,26.0,17.0,-100.00,South,169,3.0,4.0,68,0.00,,,-99.99,,2013-02-16 01:31:00,
2013-02-15 18:41:00,26.0,16.0,-100.00,SSE,158,2.0,4.0,64,0.00,,,-99.99,,2013-02-16 01:41:00,
2013-02-15 18:51:00,24.0,17.0,-100.00,ESE,109,0.0,2.0,72,0.00,,,-99.99,,2013-02-16 01:51:00,
2013-02-15 19:01:00,24.0,17.0,-100.00,ESE,102,1.0,2.0,72,0.00,,,-99.99,,2013-02-16 02:01:00,
2013-02-15 19:11:00,25.0,17.0,-100.00,SW,219,1.0,2.0,71,0.00,,,-99.99,,2013-02-16 02:11:00,
2013-02-15 19:21:00,27.0,17.0,-100.00,SSE,148,1.0,2.0,67,0.00,,,-99.99,,2013-02-16 02:21:00,
2013-02-15 19:31:00,27.0,18.0,-100.00,SSE,154,1.0,3.0,69,0.00,,,-99.99,,2013-02-16 02:31:00,
2013-02-15 19:42:00,26.0,18.0,-100.00,NE,52,0.0,1.0,70,0.00,,,-99.99,,2013-02-16 02:42:00,
2013-02-15 19:51:00,26.0,17.0,-100.00,North,349,1.0,2.0,69,0.00,,,-99.99,,2013-02-16 02:51:00,
2013-02-15 20:01:00,25.0,17.0,-100.00,NW,304,1.0,4.0,71,0.00,,,-99.99,,2013-02-16 03:01:00,
2013-02-15 20:11:00,26.0,17.0,-100.00,WNW,296,1.0,2.0,70,0.00,,,-99.99,,2013-02-16 03:11:00,
2013-02-15 20:21:00,26.0,17.0,-100.00,East,83,0.0,1.0,69,0.00,,,-99.99,,2013-02-16 03:21:00,
2013-02-15 20:31:00,27.0,18.0,-100.00,SE,130,1.0,2.0,68,0.00,,,-99.99,,2013-02-16 03:31:00,
2013-02-15 20:41:00,28.0,18.0,-100.00,SE,145,2.0,3.0,66,0.00,,,-99.99,,2013-02-16 03:41:00,
2013-02-15 20:52:00,29.0,18.0,-100.00,SSE,162,1.0,2.0,64,0.00,,,-99.99,,2013-02-16 03:52:00,
2013-02-15 21:01:00,28.0,18.0,-100.00,South,174,0.0,1.0,65,0.00,,,-99.99,,2013-02-16 04:01:00,
2013-02-15 21:11:00,28.0,18.0,-100.00,SE,138,0.0,1.0,66,0.00,,,-99.99,,2013-02-16 04:11:00,
2013-02-15 21:21:00,28.0,18.0,-100.00,ESE,104,0.0,2.0,66,0.00,,,-99.99,,2013-02-16 04:21:00,
2013-02-15 21:31:00,30.0,19.0,-100.00,WSW,247,1.0,2.0,62,0.00,,,-99.99,,2013-02-16 04:31:00,
2013-02-15 21:41:00,29.0,18.0,-100.00,WNW,284,2.0,4.0,62,0.00,,,-99.99,,2013-02-16 04:41:00,
2013-02-15 21:51:00,27.0,16.0,-100.00,NW,311,4.0,6.0,64,0.00,,,-99.99,,2013-02-16 04:51:00,
2013-02-15 22:01:00,29.0,19.0,-100.00,NNW,333,3.0,6.0,65,0.00,,,-99.99,,2013-02-16 05:01:00,
2013-02-15 22:11:00,31.0,20.0,-100.00,NW,312,4.0,7.0,63,0.00,,,-99.99,,2013-02-16 05:11:00,
2013-02-15 22:21:00,32.0,20.0,-100.00,WNW,299,7.0,11.0,62,0.00,,,-99.99,,2013-02-16 05:21:00,
2013-02-15 22:31:00,33.0,21.0,-100.00,WNW,301,10.0,12.0,61,0.00,,,-99.99,,2013-02-16 05:31:00,
2013-02-15 22:42:00,32.0,21.0,-100.00,WNW,299,9.0,11.0,63,0.00,,,-99.99,,2013-02-16 05:42:00,
2013-02-15 22:52:00,34.0,22.0,-100.00,WNW,294,9.0,12.0,61,0.00,,,-99.99,,2013-02-16 05:52:00,
2013-02-15 23:01:00,34.0,21.0,-100.00,WNW,296,10.0,13.0,60,0.00,,,-99.99,,2013-02-16 06:01:00,
2013-02-15 23:11:00,34.0,22.0,-100.00,WNW,296,10.0,16.0,61,0.00,,,-99.99,,2013-02-16 06:11:00,
2013-02-15 23:21:00,34.0,22.0,-100.00,WNW,302,9.0,11.0,61,0.00,,,-99.99,,2013-02-16 06:21:00,
2013-02-15 23:32:00,33.0,22.0,-100.00,NW,313,7.0,10.0,64,0.00,,,-99.99,,2013-02-16 06:32:00,
2013-02-15 23:41:00,33.0,22.0,-100.00,NW,315,6.0,7.0,64,0.00,,,-99.99,,2013-02-16 06:41:00,
2013-02-15 23:51:00,33.0,22.0,-100.00,WNW,296,8.0,11.0,63,0.00,,,-99.99,,2013-02-16 06:51:00,